This demonstration page uses our WeatherBlox Daily Observations layout. Learn more.

Left ArrowRight Arrow

39.29038, -76.61219

Hourly Observations for August 30, 2020

Temp ( °F °C ) Dew Point ( °F °C ) Humidity (%) Winds ( mph kmh ) Pressure ( in mb ) Visibility ( mi km ) Precip ( " mm )
12:54 am 00:54 Mostly Clear 74 23.3 60 15.6 62 62 WNW 3 6 29.68 1005 10 16 0.00 0.00
1:54 am 01:54 Partly Cloudy 71 21.7 60 15.6 68 68 W 5 7 29.70 1006 10 16 0.00 0.00
2:54 am 02:54 Partly Cloudy 67 19.4 61 16.1 81 81 W 5 7 29.70 1006 10 16 0.00 0.00
3:54 am 03:54 Partly Cloudy 66 18.9 59 15 78 78 W 7 11 29.70 1006 10 16 0.00 0.00
4:54 am 04:54 Mostly Clear 66 18.9 60 15.6 81 81 WSW 6 9 29.70 1006 10 16 0.00 0.00
5:54 am 05:54 Mostly Clear 64 17.8 59 15 84 84 W 6 9 29.71 1006 10 16 0.00 0.00
6:54 am 06:54 Partly Cloudy 64 17.8 60 15.6 87 87 W 6 9 29.74 1007 10 16 0.00 0.00
7:54 am 07:54 Partly Cloudy 70 21.1 61 16.1 73 73 W 7 11 29.78 1009 10 16 0.00 0.00
8:54 am 08:54 Mostly Sunny 73 22.8 62 16.7 69 69 WNW 8 13 29.80 1009 10 16 0.00 0.00
9:54 am 09:54 Mostly Sunny 76 24.4 59 15 56 56 NW 10 17 29.81 1010 10 16 0.00 0.00
10:54 am 10:54 Mostly Sunny 78 25.6 57 13.9 48 48 NW 10 17 29.82 1010 10 16 0.00 0.00
11:54 am 11:54 Partly Cloudy 79 26.1 57 13.9 47 47 WNW 10 17 29.83 1010 10 16 0.00 0.00
12:54 pm 12:54 Mostly Cloudy 78 25.6 57 13.9 48 48 WNW 8 13 29.83 1010 10 16 0.00 0.00
1:54 pm 13:54 Mostly Cloudy 81 27.2 57 13.9 44 44 W 7 11 29.84 1010 10 16 0.00 0.00
2:54 pm 14:54 Mostly Cloudy 80 26.7 56 13.3 44 44 NW 9 15 29.83 1010 10 16 0.00 0.00
3:54 pm 15:54 Mostly Cloudy 81 27.2 58 14.4 45 45 WNW 13 20 29.83 1010 10 16 0.00 0.00
4:54 pm 16:54 Mostly Cloudy 82 27.8 57 13.9 42 42 WNW 6 9 29.83 1010 10 16 0.00 0.00
5:54 pm 17:54 Partly Cloudy 81 27.2 57 13.9 44 44 NW 3 6 29.83 1010 10 16 0.00 0.00
6:54 pm 18:54 Partly Cloudy 79 26.1 58 14.4 49 49 SW 3 6 29.85 1011 10 16 0.00 0.00
7:54 pm 19:54 Partly Cloudy 74 23.3 59 15 60 60 Calm 29.87 1011 10 16 0.00 0.00
8:54 pm 20:54 Mostly Cloudy 75 23.9 59 15 58 58 Calm 29.89 1012 10 16 0.00 0.00
9:54 pm 21:54 Mostly Cloudy 74 23.3 60 15.6 62 62 SE 3 6 29.90 1013 10 16 0.00 0.00
10:54 pm 22:54 Mostly Cloudy 71 21.7 61 16.1 71 71 SSE 3 6 29.93 1013 10 16 0.00 0.00
11:54 pm 23:54 Mostly Cloudy 72 22.2 62 16.7 71 71 S 5 7 29.94 1014 10 16 0.00 0.00

Powered by AerisWeather